Wind_Speed
33 32 29 28 27 28 26 24 23 22 25 25 24 24 25 27 25 23 22 25 25 23 21 23 25 30 15 13 10 7 8 9 9 7 10 12 14 16 13 14 12 12 16
30 27 27 26 24 23 22 21 21 22 21 20 23 25 24 22 20 22 23 23 21 22 24 23 22 13 12 14 12 11 10 9 12 11 9 10 12 15 14 12 10 13 18
27 26 23 22 21 20 20 20 19 18 19 21 22 20 16 18 19 21 20 21 21 22 23 27 18 14 14 14 14 12 12 10 12 11 10 8 15 15 14 14 13 12 18
26 23 22 22 20 19 18 17 15 18 21 23 23 20 17 19 17 18 19 20 20 22 26 15 12 14 14 15 15 12 11 12 13 12 13 12 14 14 14 13 13 13 15
23 21 22 20 17 16 15 13 16 20 22 20 19 19 19 18 16 16 18 19 19 17 11 8 7 13 13 17 15 13 12 14 13 14 16 14 13 11 12 14 13 12 12
21 20 18 16 15 15 12 14 18 17 16 16 17 15 14 13 12 15 16 17 16 13 15 8 10 13 12 17 17 11 13 15 12 12 14 15 14 13 13 14 14 13 12
19 18 16 14 14 11 12 15 12 13 12 12 9 9 11 8 10 13 14 16 12 8 6 11 12 12 11 13 17 13 13 15 12 10 12 14 15 15 14 13 14 14 16
17 14 13 13 11 12 12 9 11 10 10 7 7 8 7 8 10 11 12 8 7 5 1 11 12 12 12 14 15 13 14 15 16 15 14 13 15 14 13 14 17 14 13
13 11 13 12 11 10 9 10 9 8 9 8 7 6 6 7 7 7 13 13 7 4 2 10 11 12 16 16 15 15 16 17 19 19 16 14 14 15 17 17 13 11 11
12 12 11 11 9 8 8 8 9 8 8 8 7 5 5 4 4 5 10 8 4 5 6 10 12 13 14 14 14 15 16 18 18 19 19 17 14 15 14 17 17 17 16
11 10 9 9 8 7 8 9 10 9 8 9 8 5 3 2 2 5 5 6 5 2 6 8 11 11 16 14 14 16 17 18 19 19 19 19 18 16 17 14 17 17 15
10 8 8 7 8 8 9 10 10 9 10 10 10 5 4 3 1 5 7 7 7 4 6 9 9 11 17 16 17 18 18 18 18 17 18 16 17 20 21 19 15 16 15
9 7 4 6 7 8 8 8 9 9 12 11 10 6 6 4 2 5 7 9 6 6 8 9 11 12 14 17 19 18 17 16 17 16 16 13 13 16 17 17 13 17 12
7 4 4 6 5 4 6 11 12 11 11 10 11 8 8 3 3 4 5 7 5 7 8 11 12 15 17 18 18 16 15 16 16 15 17 14 13 14 16 14 15 13 16
5 4 4 4 3 6 9 11 13 11 12 10 11 8 6 3 4 5 8 4 5 7 11 13 16 16 16 14 13 13 14 14 15 15 15 14 11 13 17 19 16 18 19
5 4 3 3 4 6 8 10 10 11 11 12 11 9 5 3 5 7 11 6 4 7 8 13 14 14 13 12 12 13 12 11 13 13 13 16 18 19 19 18 17 18 17
7 5 3 3 5 5 6 9 11 11 12 13 11 8 5 7 5 8 11 11 6 5 6 10 14 14 14 13 12 11 12 12 12 11 13 18 17 15 19 18 18 16 13
9 7 4 4 2 5 7 7 10 13 13 13 11 9 8 7 7 8 9 8 6 7 7 7 10 12 13 12 13 13 10 9 7 10 12 16 16 14 16 22 19 15 11
11 8 4 5 4 8 8 10 13 13 14 11 12 12 11 9 8 9 9 8 10 10 10 11 11 11 12 14 13 7 7 10 13 15 15 15 16 17 15 15 15 12 9
12 10 8 8 8 9 10 12 12 14 12 12 12 13 12 11 10 11 11 11 11 10 9 9 11 12 12 11 10 9 12 13 12 10 10 10 13 14 15 15 14 12 12
14 12 9 6 10 10 12 14 14 13 11 13 13 13 13 13 14 13 14 14 12 9 8 7 7 8 8 9 9 9 10 10 10 9 9 10 11 13 14 15 15 16 15
18 15 12 11 8 10 11 13 13 12 13 11 12 13 12 11 10 12 12 10 9 9 9 9 8 8 8 7 7 8 9 9 9 9 9 9 10 11 13 14 15 16 17
18 18 15 12 13 11 12 13 13 13 14 14 13 13 12 11 11 9 10 12 12 10 7 4 4 4 4 5 6 6 6 6 6 5 6 9 11 12 13 14 15 15 16
20 22 20 20 14 14 12 12 14 11 11 11 11 10 10 9 7 9 8 7 6 3 3 2 3 4 5 6 7 8 9 10 10 11 12 14 16 18 20 21 23 25 26
21 22 18 22 19 14 9 16 12 14 14 12 13 13 12 10 8 8 8 8 7 8 7 7 7 7 8 10 10 12 14 15 16 17 18 18 19 22 23 25 27 28 29
28 23 24 24 23 22 21 21 18 16 15 16 16 16 15 16 16 15 14 12 13 13 14 14 15 16 16 17 18 20 20 21 22 24 26 25 27 28 30 31 32 34 35
Wind_Direction
243 246 246 247 250 258 268 270 267 271 276 281 285 285 289 295 293 291 291 293 292 289 289 292 298 299 270 244 237 210 182 168 158 185 188 190 199 197 197 188 187 180 183
241 243 241 245 254 261 262 264 269 276 281 283 288 289 288 285 287 290 292 293 290 291 294 293 299 276 228 222 209 197 199 177 166 194 191 204 203 191 183 179 186 184 185
237 236 242 248 251 255 263 267 273 276 282 288 290 289 279 281 288 290 294 292 293 295 291 292 276 240 221 214 206 208 196 187 182 180 189 191 171 168 180 181 189 187 190
233 236 238 242 247 254 258 266 271 282 287 287 284 281 275 276 283 290 292 298 300 298 297 296 236 218 218 212 207 194 188 195 185 196 192 180 175 175 177 182 186 189 192
229 231 237 243 248 254 259 266 282 289 288 282 281 273 268 273 285 290 296 303 309 313 314 277 216 207 208 204 201 202 196 187 191 189 186 180 172 167 173 180 188 186 182
228 235 239 240 247 251 259 278 288 285 284 278 273 268 258 268 281 291 303 303 313 312 307 243 196 192 204 205 193 197 182 181 177 172 180 179 171 169 173 174 175 178 173
227 233 235 239 243 248 265 281 281 277 279 274 266 257 259 263 285 298 295 309 307 318 318 171 186 192 196 193 178 180 177 177 181 174 177 176 176 173 171 173 179 181 181
230 226 231 234 238 251 274 269 271 267 268 261 256 257 256 270 295 296 303 318 311 304 337 189 184 191 189 175 173 174 179 177 177 174 176 176 180 184 187 188 178 174 207
222 214 224 233 242 268 258 255 268 259 262 240 226 232 249 280 291 295 331 341 322 287 230 180 183 178 172 172 175 179 176 172 169 168 172 170 174 182 192 188 180 187 158
216 218 221 234 249 252 255 262 256 260 255 228 199 228 264 281 275 312 327 334 329 253 159 167 175 173 166 175 188 185 182 172 171 170 168 168 170 191 192 199 197 184 181
215 222 230 240 249 260 256 251 243 247 222 208 194 218 246 225 283 327 353 14 359 217 193 168 165 164 172 175 172 171 166 167 166 168 174 168 168 180 189 190 191 187 195
211 220 234 256 261 252 241 238 233 232 214 195 200 209 208 213 336 17 56 40 41 88 142 155 164 170 171 170 170 169 168 168 168 168 171 176 182 186 176 181 192 203 186
207 219 252 260 240 235 233 222 211 213 203 200 202 206 203 204 128 63 66 51 63 108 145 163 159 165 169 165 166 170 169 169 169 170 172 166 163 173 173 179 180 186 211
202 207 239 248 237 223 205 200 200 198 198 199 198 203 215 216 154 165 116 68 85 139 144 162 155 156 161 166 168 169 173 173 175 172 175 179 165 181 188 176 179 175 169
185 195 228 241 230 189 202 206 208 207 194 191 192 198 200 202 171 172 158 101 91 131 159 151 149 148 149 153 158 163 172 177 176 178 180 185 187 172 163 163 168 165 160
170 194 205 229 207 207 214 210 207 203 194 186 182 189 203 192 162 173 167 153 113 128 152 173 164 162 163 162 166 167 171 182 189 194 194 191 187 182 178 170 161 160 156
165 177 186 181 195 199 193 201 196 196 189 177 178 184 185 167 168 172 176 170 144 139 138 163 163 166 166 168 165 158 144 134 143 166 181 186 194 199 172 158 156 157 162
176 173 133 163 158 165 174 182 186 180 175 176 170 165 152 148 151 161 173 180 169 154 143 144 155 164 159 158 153 148 151 158 154 149 156 176 178 167 170 169 177 178 179
178 152 137 121 134 143 151 147 152 159 164 173 160 147 141 142 147 156 156 157 151 152 142 143 147 147 148 153 156 166 163 159 157 156 162 172 173 171 180 190 193 199 210
181 153 136 125 138 138 151 153 154 155 163 162 151 142 139 136 145 149 149 151 146 147 142 141 140 145 156 167 172 173 169 165 166 173 178 185 188 188 193 202 216 229 243
186 164 141 133 141 145 152 151 161 161 159 160 156 151 148 145 145 145 147 153 156 161 157 153 153 155 161 175 181 181 185 194 204 206 216 219 214 214 218 223 233 243 253
185 181 167 153 141 151 162 160 156 171 174 172 167 161 161 156 166 164 159 164 170 177 183 186 189 183 182 189 197 200 207 215 221 221 222 223 222 223 229 235 245 254 262
196 187 186 181 161 158 153 167 170 167 172 172 172 174 168 172 169 181 178 179 189 198 195 193 200 192 210 200 191 192 193 200 212 232 246 251 252 253 252 251 253 256 262
193 199 185 198 204 183 184 167 155 175 175 166 166 170 181 192 192 192 206 212 179 182 133 143 170 186 200 209 210 221 230 235 238 239 238 236 240 243 245 247 250 256 260
202 213 204 188 209 191 210 161 187 177 182 181 187 189 195 193 204 213 220 204 195 183 177 191 205 214 218 217 221 229 235 240 244 249 252 253 253 254 256 260 264 267 270
216 212 210 212 209 213 209 214 212 208 197 196 203 204 212 218 219 224 224 222 218 220 224 229 239 244 247 251 254 256 258 259 261 262 263 263 263 263 264 264 265 267 268
Height
5720 5723 5726 5728 5731 5732 5733 5734 5735 5735 5735 5735 5734 5734 5733 5732 5730 5728 5726 5724 5721 5720 5719 5717 5715 5713 5712 5714 5715 5717 5717 5718 5720 5722 5724 5728 5731 5735 5739 5742 5744 5746 5754
5713 5717 5720 5723 5725 5726 5727 5728 5729 5730 5730 5730 5729 5727 5727 5726 5725 5722 5720 5718 5717 5715 5713 5712 5711 5708 5708 5711 5713 5714 5716 5718 5720 5723 5724 5727 5730 5731 5735 5739 5742 5747 5753
5709 5712 5716 5718 5720 5720 5722 5723 5724 5724 5724 5724 5723 5722 5722 5721 5720 5718 5716 5713 5712 5709 5708 5706 5706 5706 5707 5709 5711 5713 5715 5718 5720 5723 5726 5728 5729 5733 5737 5740 5745 5749 5753
5704 5708 5711 5713 5715 5716 5718 5718 5719 5719 5719 5718 5718 5718 5717 5716 5715 5713 5711 5709 5706 5705 5702 5699 5699 5702 5704 5707 5709 5711 5714 5717 5720 5722 5726 5729 5732 5735 5738 5741 5745 5749 5753
5700 5703 5705 5708 5710 5711 5713 5714 5714 5714 5713 5713 5713 5712 5712 5711 5710 5709 5707 5704 5702 5699 5697 5696 5696 5699 5701 5704 5707 5710 5712 5716 5719 5722 5724 5728 5731 5734 5737 5741 5745 5749 5752
5695 5697 5700 5703 5705 5707 5709 5709 5710 5709 5708 5708 5707 5707 5707 5707 5706 5704 5702 5701 5699 5696 5694 5693 5694 5697 5700 5703 5706 5709 5711 5715 5718 5721 5724 5728 5731 5734 5738 5741 5744 5748 5752
5691 5694 5697 5699 5702 5704 5705 5706 5705 5705 5705 5704 5704 5704 5704 5704 5703 5702 5699 5698 5696 5694 5692 5692 5694 5696 5699 5702 5705 5709 5711 5714 5718 5721 5724 5728 5731 5735 5738 5741 5745 5747 5751
5688 5691 5694 5696 5699 5701 5701 5702 5702 5702 5701 5701 5702 5702 5702 5702 5701 5699 5697 5696 5694 5693 5692 5692 5694 5696 5699 5702 5705 5708 5711 5714 5717 5721 5725 5728 5732 5735 5739 5742 5744 5748 5752
5685 5689 5691 5693 5696 5697 5698 5699 5698 5699 5699 5700 5701 5701 5701 5700 5699 5698 5696 5694 5693 5692 5692 5692 5694 5696 5699 5703 5706 5709 5711 5714 5716 5720 5724 5728 5732 5736 5739 5742 5746 5748 5750
5683 5686 5689 5691 5692 5694 5695 5695 5696 5696 5697 5699 5700 5700 5700 5699 5698 5697 5696 5693 5692 5692 5692 5693 5695 5697 5701 5704 5706 5709 5712 5715 5718 5720 5724 5728 5732 5735 5739 5743 5746 5749 5751
5680 5683 5686 5687 5689 5691 5691 5692 5693 5694 5696 5697 5698 5699 5698 5698 5698 5697 5695 5693 5692 5691 5692 5694 5696 5698 5701 5704 5707 5710 5713 5716 5719 5722 5724 5727 5730 5735 5740 5743 5745 5749 5752
5679 5681 5683 5684 5686 5688 5689 5689 5690 5692 5694 5696 5697 5698 5697 5698 5698 5697 5696 5694 5693 5693 5694 5695 5697 5699 5701 5704 5708 5711 5714 5717 5720 5723 5726 5729 5731 5734 5738 5742 5745 5749 5753
5677 5680 5680 5682 5684 5684 5685 5687 5689 5691 5692 5694 5696 5697 5697 5698 5698 5698 5698 5697 5696 5696 5696 5698 5699 5701 5704 5707 5709 5713 5716 5719 5722 5725 5728 5731 5733 5735 5738 5742 5747 5751 5753
5676 5678 5679 5680 5681 5682 5684 5686 5687 5688 5691 5693 5694 5695 5696 5698 5699 5699 5699 5700 5699 5699 5699 5700 5702 5704 5707 5710 5712 5715 5718 5721 5724 5727 5730 5733 5734 5736 5740 5743 5746 5749 5753
5675 5677 5678 5679 5680 5681 5683 5684 5685 5686 5689 5692 5693 5695 5697 5698 5699 5699 5701 5701 5701 5701 5702 5703 5705 5707 5709 5713 5715 5718 5720 5722 5724 5727 5730 5733 5735 5738 5740 5743 5747 5750 5754
5673 5676 5678 5678 5678 5679 5681 5683 5685 5687 5689 5692 5694 5696 5697 5698 5699 5700 5702 5703 5703 5704 5704 5706 5708 5710 5712 5714 5716 5719 5722 5723 5726 5728 5731 5733 5736 5739 5742 5745 5749 5752 5756
5674 5676 5677 5678 5678 5678 5679 5681 5684 5686 5689 5692 5694 5696 5697 5698 5700 5701 5703 5704 5705 5706 5707 5708 5709 5711 5713 5716 5718 5720 5722 5724 5726 5728 5730 5734 5738 5741 5744 5748 5751 5753 5756
5674 5675 5677 5677 5678 5677 5679 5681 5684 5686 5690 5692 5694 5696 5697 5699 5701 5703 5705 5707 5708 5709 5709 5710 5711 5714 5716 5719 5721 5723 5725 5726 5728 5730 5733 5736 5740 5742 5745 5748 5752 5754 5757
5674 5675 5676 5676 5677 5679 5681 5683 5685 5688 5691 5694 5695 5696 5698 5700 5702 5704 5707 5709 5710 5712 5713 5714 5715 5717 5719 5721 5724 5726 5727 5728 5730 5732 5735 5738 5741 5744 5747 5750 5753 5754 5756
5675 5676 5677 5677 5679 5681 5683 5684 5686 5690 5693 5696 5697 5698 5699 5701 5704 5706 5708 5710 5712 5714 5716 5718 5718 5720 5722 5724 5725 5727 5729 5731 5734 5736 5739 5741 5742 5744 5747 5749 5751 5753 5754
5675 5676 5678 5680 5681 5683 5685 5687 5690 5692 5694 5697 5699 5700 5703 5704 5705 5708 5710 5712 5714 5716 5717 5719 5721 5722 5724 5726 5727 5729 5731 5733 5735 5737 5739 5741 5742 5744 5746 5748 5749 5750 5751
5673 5676 5679 5681 5683 5685 5687 5689 5691 5694 5697 5699 5701 5703 5704 5706 5708 5709 5711 5713 5715 5716 5717 5719 5721 5723 5725 5727 5729 5730 5732 5734 5736 5737 5739 5740 5741 5743 5744 5745 5746 5746 5747
5674 5675 5679 5682 5684 5686 5688 5690 5692 5694 5696 5698 5701 5703 5705 5707 5708 5710 5711 5711 5712 5714 5717 5721 5723 5725 5726 5728 5729 5731 5732 5734 5735 5736 5737 5738 5739 5740 5741 5741 5742 5742 5742
5673 5674 5678 5679 5683 5687 5687 5692 5695 5697 5698 5701 5704 5706 5707 5708 5711 5711 5713 5714 5718 5719 5721 5721 5723 5724 5725 5726 5727 5728 5729 5729 5730 5731 5732 5732 5733 5734 5734 5735 5735 5734 5734
5669 5672 5680 5682 5684 5688 5688 5681 5693 5697 5699 5700 5703 5704 5705 5708 5710 5711 5713 5716 5717 5718 5719 5720 5720 5721 5722 5723 5724 5725 5725 5726 5726 5727 5727 5728 5728 5728 5729 5729 5729 5728 5727
5668 5673 5675 5677 5683 5686 5689 5691 5692 5695 5697 5699 5701 5703 5704 5706 5707 5709 5711 5714 5716 5716 5716 5717 5718 5719 5720 5721 5722 5722 5722 5723 5723 5722 5721 5723 5722 5722 5721 5720 5719 5718 5716